Dewpoint
22 19 16 13 12 11 11 11 11 12 13 13 14 14 14 14 14 12 12 14 16 17 18 18 19 19 19 19 20 20 20 19 19 20 20 21 20 19 19 21 22 22 23
17 15 12 11 10 10 10 11 12 12 13 14 14 13 13 13 13 11 12 15 17 18 19 19 19 19 19 19 19 19 20 20 21 21 21 21 18 20 21 23 22 20 19
14 12 11 11 11 10 11 12 12 13 14 14 13 12 12 13 12 11 14 18 20 20 20 20 20 19 18 18 20 21 21 21 22 22 20 21 22 24 22 19 16 16 16
13 13 12 12 11 11 12 12 13 13 13 13 13 12 12 11 11 13 18 21 22 21 21 21 20 19 19 21 22 22 23 22 21 22 22 25 22 20 20 17 16 17 18
14 14 13 13 13 13 13 13 13 13 13 13 12 12 12 12 9 19 22 22 22 22 21 20 20 21 23 23 22 22 21 22 24 25 25 20 19 18 16 17 17 19 22
15 14 15 13 13 13 12 13 13 13 12 12 11 11 11 10 17 21 22 22 22 22 20 19 20 22 22 22 22 22 23 23 27 25 22 19 16 16 18 19 23 21 18
15 14 13 13 12 12 12 12 12 12 12 11 11 11 10 11 19 21 22 22 21 21 20 20 20 20 22 22 23 24 24 30 24 22 18 17 18 19 24 24 22 21 20
14 13 13 12 11 11 11 11 11 11 11 10 10 11 11 12 21 21 22 21 21 20 20 20 20 21 22 22 22 28 27 21 19 18 18 20 25 26 21 21 22 23 22
13 12 11 10 10 11 11 11 11 11 10 10 11 11 13 16 20 21 22 21 20 20 20 21 21 19 20 21 25 26 19 18 17 19 24 23 19 20 21 23 22 19 17
12 10 10 10 11 11 11 11 11 11 10 11 11 14 16 15 19 21 21 20 20 19 20 19 19 21 20 24 22 20 18 16 21 25 16 15 16 17 20 19 20 19 18
10 10 10 11 11 11 11 11 10 11 11 11 13 15 16 17 18 20 21 20 20 20 18 18 21 20 24 20 19 18 17 22 21 16 15 16 17 18 18 19 20 21 18
10 11 12 12 11 11 11 11 11 12 12 13 16 16 17 17 19 19 20 21 21 19 19 21 20 22 19 18 18 19 21 20 15 15 16 18 18 19 19 20 20 21 21
11 12 12 12 12 11 11 11 12 13 13 15 16 16 16 17 17 19 21 21 20 21 22 20 21 19 17 16 17 19 18 15 15 17 18 18 18 19 20 20 20 20 21
11 13 14 13 12 12 13 12 14 14 15 17 17 16 17 16 16 17 19 20 20 23 20 20 18 16 16 16 15 14 15 15 17 18 18 18 18 18 18 19 18 19 19
12 13 14 13 12 12 13 13 16 17 18 17 17 17 16 15 16 19 19 19 22 20 19 17 12 13 13 13 14 14 15 15 17 17 18 17 17 17 17 18 19 19 17
13 15 14 13 13 13 13 13 17 17 17 17 16 16 16 17 18 19 20 21 19 19 16 13 13 13 13 13 14 15 15 16 16 17 17 17 17 17 17 18 18 18 17
13 15 16 13 13 13 14 14 13 12 14 13 14 15 16 17 18 19 20 19 18 16 13 14 14 14 14 15 15 16 16 16 18 17 17 17 17 18 16 16 17 17 17
18 17 15 14 13 16 16 15 13 12 10 9 11 14 15 16 18 19 18 16 13 14 14 14 14 14 15 15 16 16 17 16 16 16 18 18 17 17 16 16 17 17 18
16 17 16 15 16 17 14 12 13 11 10 9 10 12 13 16 18 18 16 14 14 14 14 14 14 15 15 16 16 16 16 16 18 18 16 17 17 17 16 17 18 19 21
17 19 17 14 14 13 11 12 11 9 10 10 11 11 13 17 17 14 13 14 14 13 14 14 15 15 16 16 16 16 16 16 16 16 17 17 18 18 18 18 19 20 21
14 14 16 12 11 10 11 13 10 10 11 12 12 13 16 16 13 13 14 14 13 14 14 15 15 15 16 16 16 16 15 16 16 17 17 18 18 18 19 20 21 22 23
12 12 11 9 9 10 13 10 11 12 12 13 13 13 14 12 12 13 13 13 14 14 15 15 15 15 16 16 16 16 16 16 16 17 18 19 20 21 21 22 23 24 25
10 9 8 9 10 13 11 12 12 12 13 13 12 12 12 12 12 13 13 13 14 15 15 15 15 15 16 17 18 17 16 16 18 19 19 20 21 22 25 26 26 25 24
9 9 9 10 10 11 11 13 12 13 12 12 12 11 12 12 12 12 13 14 14 14 14 15 16 16 16 16 17 18 19 19 21 23 26 28 28 28 27 27 26 23 23
9 10 10 10 10 10 12 12 12 12 11 11 11 12 12 12 12 13 13 14 14 14 14 15 16 16 17 17 17 18 20 25 30 31 32 30 28 27 28 27 24 23 21
11 10 10 10 10 11 12 12 12 11 11 12 12 13 12 12 13 14 14 14 14 14 14 15 16 17 17 18 19 22 27 30 32 32 30 29 28 28 29 26 25 23 22
Wind_Speed
22 23 24 22 21 18 17 15 15 14 12 10 8 7 6 4 4 4 3 2 5 6 6 6 9 10 11 11 12 14 16 17 26 31 23 24 28 27 24 22 21 23 24
23 24 23 22 20 19 17 15 14 14 11 9 8 7 5 4 3 3 4 4 6 7 8 8 10 11 14 14 14 15 17 19 22 31 29 26 28 27 26 25 22 24 24
23 24 21 20 20 18 16 14 13 12 10 8 7 6 4 3 2 2 4 6 6 6 7 8 13 13 15 15 16 17 18 19 19 22 30 26 25 21 24 25 25 23 22
23 22 21 19 19 17 15 13 12 10 10 7 5 4 3 3 3 4 6 7 6 6 7 10 13 13 15 17 18 19 18 21 22 22 25 23 22 24 22 24 24 22 23
23 21 19 18 17 16 15 12 11 9 8 6 4 3 3 4 4 9 8 8 8 9 10 13 13 15 20 20 19 19 22 21 21 23 16 23 25 24 25 24 25 27 24
22 21 19 18 17 15 14 12 10 8 6 4 4 4 4 5 10 11 12 10 9 10 15 16 15 17 17 21 23 26 25 24 25 22 23 25 27 24 25 25 24 27 29
22 19 18 17 17 14 12 11 9 6 4 4 4 4 6 7 10 12 14 11 11 14 16 18 17 15 19 19 23 25 27 22 26 24 26 26 26 26 26 24 28 26 28
20 19 17 17 16 13 11 9 7 3 4 3 4 6 7 7 11 14 15 11 12 14 16 18 17 18 17 22 24 21 17 21 21 20 23 24 23 22 26 25 26 28 26
19 18 16 16 15 12 10 7 5 4 3 4 4 6 8 9 11 15 15 13 14 16 17 16 15 19 23 29 23 22 24 24 22 25 26 26 32 29 25 21 21 22 26
18 17 16 14 13 11 8 7 4 2 3 5 6 6 8 9 12 15 16 14 15 17 16 15 17 21 28 28 25 23 22 25 23 20 23 23 21 22 24 19 19 22 23
18 17 15 12 12 10 7 4 3 3 4 7 8 8 7 8 11 15 17 15 16 16 17 18 17 25 27 29 28 21 21 24 23 21 20 20 20 19 19 18 19 19 23
18 17 14 12 9 8 7 4 3 4 7 7 9 11 9 9 12 15 17 18 20 18 19 17 20 27 29 28 23 22 25 23 18 18 20 20 20 20 20 21 22 21 20
17 15 13 10 8 6 5 4 4 5 5 7 9 11 14 13 13 16 18 19 21 19 15 22 26 26 26 20 20 23 21 16 17 19 19 20 19 21 23 21 21 21 22
17 14 10 9 7 4 4 3 3 5 6 8 11 13 14 15 13 14 14 15 18 16 19 16 20 21 18 19 18 16 16 16 18 18 19 20 20 20 20 18 21 21 22
15 12 9 7 5 4 4 2 4 4 4 11 11 12 15 15 15 20 21 19 17 20 23 17 17 16 17 17 18 18 18 18 18 18 19 20 21 20 22 19 19 21 19
14 9 7 5 4 3 4 6 5 7 11 11 13 13 14 17 20 22 22 22 24 23 16 15 16 16 17 18 19 20 19 19 18 19 19 18 20 20 21 21 19 18 20
13 9 7 5 3 4 6 8 12 11 9 12 14 17 17 18 20 21 22 24 20 19 13 15 16 17 18 18 18 18 21 19 19 17 18 20 19 19 21 20 19 18 20
11 9 6 4 4 5 5 6 7 9 14 16 16 17 17 20 21 22 22 19 16 13 13 16 17 17 18 18 19 19 20 20 19 19 19 19 19 18 19 19 19 19 19
9 7 5 5 5 5 5 6 7 9 11 13 14 14 15 19 20 19 18 12 15 16 16 16 17 17 18 18 19 19 19 20 21 20 19 18 18 16 19 18 18 23 22
8 8 7 5 5 5 6 7 9 10 11 12 14 15 16 17 15 16 15 14 15 16 16 17 17 18 18 19 19 19 20 21 20 18 19 19 18 17 18 18 18 17 17
7 6 6 5 5 6 6 7 9 10 11 13 14 15 21 17 15 15 16 15 15 16 17 17 18 19 18 18 18 19 20 21 20 19 19 19 18 18 17 17 17 16 16
6 5 5 5 6 7 7 8 8 10 12 13 15 16 19 14 14 15 16 16 16 16 15 17 19 19 18 19 19 19 21 22 20 18 19 20 19 18 17 17 16 14 14
6 5 5 5 6 6 8 8 9 10 12 13 14 15 15 15 15 15 16 16 16 16 16 17 18 20 18 18 18 17 19 22 21 20 21 22 20 18 15 13 13 14 13
5 4 4 5 6 7 8 9 10 11 12 13 13 14 14 15 16 16 16 16 16 17 17 17 17 21 21 22 20 19 18 19 19 22 23 17 14 15 13 13 11 12 10
3 3 4 5 7 8 9 9 10 11 12 12 13 14 15 15 16 16 16 16 17 17 19 19 18 20 22 25 27 26 23 29 29 28 12 13 14 14 11 9 9 9 8
3 4 5 7 8 8 9 10 11 11 12 12 13 14 15 15 15 16 17 16 17 18 21 19 21 24 26 23 22 25 31 31 28 18 12 12 13 10 10 9 10 8 7
Wind_Direction
127 127 126 127 127 125 127 127 123 121 121 118 115 107 96 79 50 29 3 332 322 313 315 311 306 308 300 298 291 286 284 283 286 296 300 303 304 299 302 300 294 292 287
126 124 123 123 124 124 126 123 124 119 117 118 113 102 90 69 32 0 334 317 312 318 320 319 315 316 305 300 297 292 287 284 283 291 299 301 301 305 304 306 299 293 292
123 122 124 126 126 126 125 122 120 120 117 112 103 93 76 41 1 310 301 307 311 317 318 313 312 309 305 303 298 292 286 284 283 284 295 295 302 308 305 305 302 297 294
124 126 128 130 128 126 123 122 122 120 115 108 96 89 57 354 318 319 309 309 313 311 299 301 300 304 307 302 295 292 296 296 293 291 288 296 304 309 303 303 303 300 301
125 126 128 127 123 123 123 121 117 109 104 106 103 62 15 333 334 329 321 322 313 304 299 301 303 305 303 303 302 307 302 298 293 291 306 310 305 308 306 305 299 302 300
125 127 129 127 126 125 124 120 111 103 106 99 63 30 354 340 330 330 329 320 314 304 309 310 304 298 290 299 309 304 302 298 300 316 306 301 302 304 301 300 298 308 303
126 131 131 129 126 125 123 117 112 108 103 66 25 354 351 337 331 331 326 321 313 309 310 307 304 297 299 301 297 296 296 297 302 301 300 297 297 296 297 302 303 299 298
130 131 131 127 124 125 119 114 114 99 66 32 3 353 339 334 334 329 324 316 309 308 302 300 298 299 302 303 309 309 308 305 303 299 294 292 292 298 302 301 301 297 294
134 132 130 130 128 126 117 116 105 72 41 10 345 345 341 329 328 327 326 317 313 306 298 294 299 308 311 313 318 314 312 309 302 299 297 299 301 302 304 303 299 303 301
131 130 129 127 127 123 123 105 84 66 10 353 348 345 329 317 324 328 326 318 311 314 313 311 310 315 315 318 320 318 314 307 305 306 310 305 305 304 304 300 298 295 298
122 122 121 119 118 116 107 99 82 37 8 355 343 333 321 323 322 327 326 320 317 314 318 316 315 315 315 322 320 317 304 307 317 314 309 308 308 307 307 306 299 289 290
122 119 117 114 110 110 106 89 63 26 8 347 332 331 330 319 323 326 324 323 321 322 317 317 310 317 323 319 318 310 314 319 313 310 309 307 309 307 305 304 298 289 279
118 117 116 111 105 106 96 69 35 12 346 337 336 329 328 329 322 316 316 318 321 320 318 311 321 320 319 318 313 316 319 317 313 308 305 305 305 304 303 301 300 297 291
120 122 119 113 108 87 64 51 11 343 341 340 334 327 323 321 318 313 310 320 319 319 315 321 319 318 315 313 318 318 318 314 311 308 304 302 302 305 305 307 306 310 310
120 120 115 102 84 56 26 347 338 327 317 329 326 322 319 318 319 322 327 319 326 324 328 322 320 325 324 323 321 318 318 318 314 310 307 307 307 309 307 310 307 310 307
122 118 109 95 69 40 6 353 348 347 340 337 330 326 320 314 320 327 321 329 328 329 324 321 323 322 320 319 316 314 314 314 310 308 304 302 303 306 307 310 309 307 306
117 115 104 89 65 27 15 4 346 338 338 339 335 331 326 323 329 326 330 331 333 329 324 323 319 318 313 309 307 307 307 307 305 301 301 301 301 304 309 305 306 306 307
108 108 105 92 50 33 15 357 338 334 333 329 330 335 332 332 329 330 337 333 328 331 324 319 314 311 308 306 305 305 306 308 308 304 302 303 302 299 304 304 304 304 304
105 101 88 61 42 28 3 342 340 334 324 316 322 328 332 327 326 332 335 330 324 321 319 313 310 304 303 302 302 304 305 304 305 306 302 300 301 300 299 298 298 305 313
89 77 68 50 30 10 352 347 339 328 323 325 325 326 324 323 332 329 329 327 321 315 312 309 306 303 302 301 303 304 304 304 305 304 302 300 300 298 295 296 298 303 308
78 63 56 48 22 357 347 340 330 328 326 322 317 318 325 332 324 321 319 318 316 310 309 306 303 301 299 299 301 302 301 300 301 299 298 298 299 299 298 296 298 301 304
77 67 47 27 4 352 344 335 332 327 321 318 317 317 326 327 322 317 315 312 309 307 302 299 298 297 298 298 300 300 300 299 298 297 297 298 298 299 299 298 300 308 319
71 55 30 11 355 342 339 337 333 328 322 317 316 318 323 323 319 313 310 308 307 305 303 298 295 297 299 299 297 291 289 291 293 292 292 294 294 293 294 309 323 331 331
67 44 13 356 345 344 338 331 326 324 320 315 318 319 318 315 312 309 308 306 305 303 299 296 296 294 299 302 301 298 292 289 290 286 284 288 306 312 315 324 338 337 330
55 21 -0 348 340 334 329 325 320 319 314 315 318 316 313 311 309 308 306 305 303 302 302 304 301 300 302 302 302 300 300 307 312 312 314 317 316 322 322 340 347 338 338
21 2 346 339 335 330 323 319 316 313 312 314 311 308 307 306 307 306 306 305 305 305 304 304 304 305 305 306 304 308 314 317 318 337 343 333 334 340 347 356 358 353 340